Weather Roundup
Issued by NWS Chicago, IL

Home | Current Version | Previous Version | Text Only | Print | Product List | Glossary Off
Versions: 1 2 3 4 5 6 7 8 9 10 11 12 13 14 15 16 17 18 19 20 21 22 23 24 25 26 27 28 29 30 31 32 33 34 35 36 37 38 39 40 41 42 43 44 45 46 47 48 49 50

000
NZUS59 KLOT 280000
HRRLOT

CHICAGO AREA WEATHER ROUNDUP
NATIONAL WEATHER SERVICE CHICAGO/ROMEOVILLE IL
600 PM CST SAT DEC 27 2014

NOTE: "FAIR" INDICATES FEW OR NO CLOUDS BELOW 12,000 FEET WITH NO
SIGNIFICANT WEATHER AND/OR OBSTRUCTIONS TO VISIBILITY.

* THESE STATIONS ARE NOT UNDER NWS QUALITY CONTROL. THEY ALSO MAY NOT
  REPORT WEATHER SUCH AS PRECIPITATION OR FOG.

ILZ005-006-012>014-019>023-280100-
NORTHEAST ILLINOIS

CITY           SKY/WX    TMP DP  RH WIND       PRES   REMARKS
OHARE          CLOUDY    34  26  72 W13       30.07R WCI  25
6HR MIN TEMP:  34; 6HR MAX TEMP:  39; 6HR PCP: TRACE;

MIDWAY         CLOUDY    36  28  73 W13G23    30.08R
6HR MIN TEMP:  36; 6HR MAX TEMP:  44; 6HR PCP: TRACE;

AURORA         CLOUDY    34  26  72 W13       30.09S WCI  25
6HR MIN TEMP:  34; 6HR MAX TEMP:  38;

WAUKEGAN       CLOUDY    34  26  72 W8G18     30.04R WCI  27
6HR MIN TEMP:  34; 6HR MAX TEMP:  41;

DUPAGE AIRPORT CLOUDY    33  26  75 W14       30.07S WCI  23
6HR MIN TEMP:  33; 6HR MAX TEMP:  37;

WHEELING       CLOUDY    34  26  72 W13       30.08R WCI  25
6HR MIN TEMP:  34; 6HR MAX TEMP:  41;

NORTHERLY IS     N/A     35  27  73 W15         N/A  WCI  25
$$

WIZ051-052-058>065-066-070>072-280100-
SOUTHEAST WISCONSIN

CITY           SKY/WX    TMP DP  RH WIND       PRES   REMARKS
MILWAUKEE      CLOUDY    35  25  66 NW15      30.03R WCI  25
6HR MIN TEMP:  35; 6HR MAX TEMP:  42;

KENOSHA*       CLOUDY    34  27  75 W14G22    30.03R WCI  25
RACINE*        CLOUDY    35  26  69 W13G20    30.04R WCI  26
WAUKESHA       CLOUDY    32  27  80 W13       30.03R WCI  22
$$

INZ001>003-010>013-019-020-280100-
NORTHWEST INDIANA

CITY           SKY/WX    TMP DP  RH WIND       PRES   REMARKS
GARY*          CLOUDY    37  27  65 W17G35    30.08
MICHIGAN CITY* NOT AVBL
RENSSELAER*    NOT AVBL
VALPARAISO     CLOUDY    36  30  80 W18       30.07R
$$

LMZ740>746-280100-
SOUTHERN LAKE MICHIGAN

STATION/POSITION TIME  SKY/WX   TEMP WIND        PRES    VSBY
                                AIR  DIR/SP/G
                 (UTC)          (F)  (DEG/KT/KT) (MB)    (MI)
HARRISON CRIB    2300            35  260/ 23/ 30   N/A
BURNHAM HARBOR   0000            35  300/  6/ 18   N/A
CALUMET HARBOR   2300            35  260/ 11/ 20 1017.2R
BURNS HARBOR     NOT AVBL
MICHIGAN CITY    2300            37  230/ 22/ 26   N/A
$$

ABBREVIATIONS USED IN REMARKS
   TC - TEMPERATURE IN CELSIUS
  WCI - WIND CHILL INDEX
   HX - HEAT INDEX
  VSB - VISIBILITY
$$


USA.gov is the U.S. government's official web portal to all federal, state and local government web resources and services.